Wind_Speed
51 54 53 52 52 51 50 51 53 52 50 52 52 47 43 42 41 36 33 32 30 29 29 28 28 29 30 29 27 27 27 28 30 32 34 35 34 32 31 33 34 36 38 39
51 52 48 49 51 53 52 51 51 51 50 51 51 48 45 44 42 37 34 32 31 29 29 29 28 29 30 29 29 28 29 30 32 34 34 32 32 32 33 35 37 39 40 40
49 45 46 50 53 55 54 51 49 48 47 50 51 50 47 43 40 38 35 33 32 29 29 28 28 28 29 29 29 29 30 32 34 34 33 32 33 34 35 37 39 40 40 39
46 44 47 50 51 53 54 49 46 45 42 47 51 49 45 41 41 39 34 34 33 30 29 28 27 27 27 28 29 29 31 33 34 34 33 33 34 36 38 39 40 40 40 40
41 40 43 45 46 49 51 48 47 45 43 45 48 48 45 43 42 37 34 33 32 30 29 28 27 26 26 27 28 29 31 32 33 33 33 34 36 37 39 40 40 40 40 40
36 36 38 39 42 46 47 47 46 44 42 45 47 46 42 41 38 35 34 32 30 29 29 29 27 26 26 26 27 29 31 32 33 34 35 36 37 39 40 40 41 40 40 40
31 32 33 36 42 46 50 49 47 46 44 44 44 44 41 39 37 32 30 30 28 28 28 28 28 26 26 27 28 30 32 33 35 36 37 38 38 39 40 39 39 40 40 41
25 26 31 36 42 48 52 49 47 47 47 43 42 42 39 38 31 28 28 28 27 27 27 27 27 27 28 29 30 32 33 34 36 36 37 38 39 39 38 38 38 39 41 43
17 19 28 36 43 49 51 51 43 37 42 40 41 38 36 31 27 26 25 24 24 25 25 26 26 26 28 29 30 31 32 34 35 37 37 38 38 36 36 38 39 41 43 46
11 18 32 40 43 45 49 48 38 35 40 39 38 36 33 26 25 25 24 22 23 24 24 25 25 25 26 28 29 31 33 34 36 36 36 36 35 36 37 39 41 43 46 49
13 21 34 40 39 40 44 41 36 37 38 37 36 33 30 23 22 23 22 23 24 25 25 25 25 25 27 28 29 31 33 34 34 34 34 34 35 37 39 41 43 46 49 53
17 21 31 35 33 35 37 38 36 36 36 33 31 29 25 22 21 22 23 23 24 25 25 24 25 26 28 29 30 31 31 32 32 34 34 35 37 40 42 44 46 49 53 58
17 17 26 32 32 33 35 35 34 33 33 32 29 25 22 21 21 22 22 22 23 24 24 24 26 28 28 28 29 29 30 31 34 35 36 38 40 42 44 46 50 54 58 63
14 15 23 30 30 31 32 31 30 30 30 29 26 24 22 21 21 21 21 21 22 23 24 25 27 27 27 27 28 29 31 34 36 37 38 40 41 43 46 50 54 59 63 67
15 16 20 24 27 28 27 26 26 27 26 26 24 23 23 23 22 21 21 21 21 23 24 25 27 27 27 28 30 32 34 36 38 39 40 41 43 46 50 54 59 63 67 68
19 18 20 21 23 25 24 24 23 24 24 24 24 22 23 24 23 22 22 22 23 24 25 26 26 27 29 31 33 35 37 38 39 40 41 43 46 50 54 59 63 67 67 65
19 18 18 18 19 21 21 21 21 22 23 24 24 22 25 25 25 25 24 24 24 24 25 25 26 28 31 33 35 37 38 39 40 41 43 46 50 54 59 63 67 67 64 62
19 18 18 17 17 18 19 21 23 25 26 27 27 28 29 26 26 27 26 25 24 24 25 26 28 31 33 35 36 38 39 40 41 42 45 50 54 58 63 66 67 64 61 63
21 21 21 21 20 19 20 21 23 25 26 28 28 31 31 28 28 28 27 25 25 26 27 29 31 32 34 36 37 39 39 40 41 45 49 54 58 62 65 66 63 61 62 66
23 22 21 21 21 20 21 21 21 22 24 27 29 30 29 29 29 26 27 28 28 28 30 31 32 33 35 36 37 37 38 40 44 49 53 57 61 64 65 62 60 62 66 71
24 23 22 20 19 17 17 18 18 19 20 23 25 26 25 27 27 26 27 28 28 29 30 32 33 34 35 35 35 37 40 44 49 53 57 60 63 63 60 59 61 66 71 76
22 21 19 17 15 14 16 16 17 17 20 22 23 24 24 25 26 26 26 27 27 29 30 31 32 33 33 35 37 40 44 48 52 56 59 61 61 58 57 60 65 71 76 81
19 19 17 16 15 15 16 17 17 17 19 21 22 23 23 24 25 26 26 27 28 28 29 30 31 32 35 37 40 44 48 51 55 57 59 58 56 56 59 65 70 76 81 86
21 21 20 19 18 17 17 17 18 19 20 21 22 23 24 25 26 26 26 27 28 29 29 30 32 35 38 41 44 47 50 53 55 55 54 53 54 58 64 70 75 80 85 90
23 23 23 21 20 20 19 19 19 18 18 18 18 19 20 21 22 24 25 27 28 30 31 33 36 39 41 44 46 49 52 52 51 50 51 53 57 62 68 73 79 84 89 94
19 20 20 18 19 19 17 16 15 15 15 15 16 18 19 20 22 23 26 27 29 31 34 36 38 40 43 45 48 49 48 47 47 49 52 56 61 67 72 77 82 87 92 96
Wind_Direction
252 249 248 246 244 241 239 237 236 235 233 233 235 234 232 237 241 240 240 242 240 240 242 246 249 250 250 249 253 258 264 270 277 284 288 290 289 288 289 292 295 296 298 300
251 249 248 242 237 234 233 232 232 233 232 233 234 232 230 234 239 240 239 242 242 240 242 245 250 252 250 250 254 260 266 273 279 285 288 286 284 286 290 294 296 297 299 300
254 250 244 239 234 231 229 228 229 230 231 233 233 231 229 232 238 239 238 241 241 240 243 246 251 253 251 251 255 261 268 274 281 285 285 282 282 286 290 293 296 298 301 303
253 247 242 238 232 229 226 223 222 223 223 231 232 231 227 231 235 237 238 240 240 238 242 247 251 254 253 253 257 263 270 277 282 283 282 281 283 287 291 295 298 301 303 303
252 246 242 238 230 226 222 217 216 215 218 227 231 230 224 230 232 235 238 240 239 238 241 246 250 252 252 254 258 266 274 281 282 281 281 282 286 290 294 297 300 301 301 301
247 242 236 229 220 215 210 207 207 208 213 222 227 226 224 232 234 232 237 238 238 238 240 244 248 249 251 256 262 270 277 281 281 281 282 286 289 293 295 298 300 300 300 300
243 236 228 217 207 202 196 194 199 206 209 218 222 223 222 230 234 233 235 238 238 238 241 244 247 248 252 258 265 271 275 278 280 282 285 288 291 293 296 298 299 299 299 300
236 228 216 205 196 191 187 189 195 205 209 215 219 222 222 229 234 236 236 238 239 239 242 246 248 249 253 259 265 270 274 278 281 284 287 289 291 294 296 297 297 298 299 300
222 217 202 189 183 183 185 189 191 201 208 214 219 221 225 229 232 236 238 239 239 241 244 247 249 251 256 261 267 272 276 279 283 286 288 290 291 293 294 295 296 298 300 301
199 201 188 181 179 183 187 188 189 194 203 210 216 220 226 228 231 235 239 241 241 244 246 249 252 256 260 265 269 274 278 281 284 286 288 289 290 292 293 295 297 299 302 305
164 182 184 181 183 187 192 191 189 192 202 208 213 216 221 226 231 235 238 239 241 243 246 250 255 260 264 268 273 276 280 282 284 285 286 288 290 292 294 297 300 303 306 308
157 172 182 184 185 189 191 187 186 193 198 204 212 217 219 224 231 235 236 238 241 245 249 254 259 263 267 272 275 278 280 282 284 286 287 290 292 294 297 301 304 307 310 311
149 168 183 190 192 193 190 188 191 195 199 202 209 214 218 221 228 234 238 241 246 251 255 259 263 266 270 274 276 279 281 284 287 289 290 292 295 298 301 304 308 310 312 313
145 149 175 192 196 192 189 192 196 199 198 201 212 216 217 222 230 236 242 248 253 258 262 264 267 270 273 276 279 281 284 287 289 291 293 295 298 301 304 307 310 312 313 314
154 144 162 182 190 189 192 196 199 199 201 206 214 222 225 230 237 243 250 255 260 264 267 269 271 274 276 279 282 284 286 288 290 293 295 297 300 303 306 309 311 313 314 314
161 154 166 180 186 190 195 199 202 204 209 214 220 228 235 239 242 248 255 261 264 267 270 273 275 277 278 280 282 285 287 289 292 294 296 299 302 305 307 310 312 313 314 314
175 173 178 185 191 196 204 210 215 216 219 223 226 235 243 245 249 253 257 263 266 268 270 272 274 275 277 279 283 286 288 290 292 295 298 300 303 306 309 311 312 313 313 313
199 200 202 204 206 213 216 220 223 224 225 228 231 238 245 249 254 258 261 264 268 269 270 272 274 276 279 282 285 287 289 291 293 296 299 301 305 308 310 311 312 312 312 314
210 212 216 220 222 224 228 227 227 227 229 232 235 240 246 254 256 258 263 266 267 269 272 275 278 280 283 285 287 288 290 292 295 297 300 304 307 309 310 311 311 312 313 316
212 215 219 223 226 228 229 232 230 229 231 233 237 242 248 253 255 258 261 263 267 271 275 278 281 283 285 287 289 291 292 294 297 299 303 306 308 309 310 310 310 312 315 317
217 220 223 224 224 226 228 232 232 230 229 234 238 242 244 248 252 252 257 264 269 274 278 281 282 284 286 288 290 292 293 295 298 302 305 307 308 309 308 309 311 314 317 319
223 226 225 225 222 218 218 221 226 225 223 228 233 237 240 244 249 254 260 267 273 278 281 283 284 285 287 289 291 292 295 298 301 304 306 307 308 308 309 311 314 317 319 320
224 225 227 224 220 219 222 225 229 230 230 231 235 239 244 249 255 262 268 273 278 281 282 284 285 287 289 290 292 295 298 301 304 305 306 307 307 309 311 314 316 318 320 321
229 230 229 226 225 230 232 234 238 239 238 239 243 248 253 260 264 269 272 276 280 282 284 286 288 289 290 292 295 298 301 303 305 306 307 307 309 311 314 316 318 320 321 321
236 236 236 235 232 236 241 244 244 244 244 247 250 254 258 263 268 273 277 281 283 284 286 288 289 290 293 295 298 301 303 304 305 306 308 310 312 314 316 318 320 321 322 323
230 232 234 232 230 233 235 237 238 240 245 250 255 260 266 272 277 281 283 285 287 288 289 290 292 294 296 299 301 303 304 305 306 308 310 312 314 316 318 320 321 322 323 324
Height
5646 5652 5659 5667 5672 5680 5685 5692 5699 5709 5717 5721 5727 5736 5745 5748 5751 5757 5761 5764 5766 5770 5772 5774 5776 5778 5780 5783 5785 5786 5787 5787 5787 5786 5785 5783 5781 5779 5777 5776 5773 5771 5768 5764
5631 5640 5651 5652 5656 5663 5671 5680 5690 5700 5708 5714 5720 5729 5737 5741 5745 5751 5755 5758 5760 5765 5767 5769 5771 5773 5775 5778 5779 5781 5781 5782 5781 5780 5779 5777 5775 5773 5771 5769 5767 5764 5760 5757
5619 5632 5634 5635 5642 5650 5659 5671 5684 5694 5702 5707 5713 5720 5729 5735 5739 5744 5749 5752 5754 5759 5761 5763 5766 5768 5770 5773 5774 5775 5776 5776 5775 5774 5772 5771 5769 5767 5765 5763 5760 5756 5752 5749
5607 5616 5617 5621 5629 5639 5650 5666 5679 5688 5695 5699 5706 5713 5723 5729 5732 5736 5742 5745 5748 5753 5755 5758 5761 5763 5765 5767 5769 5770 5770 5770 5769 5767 5766 5764 5763 5761 5758 5755 5752 5748 5744 5740
5597 5603 5605 5610 5621 5630 5645 5660 5671 5681 5689 5694 5699 5706 5716 5719 5724 5731 5736 5738 5742 5747 5750 5752 5755 5758 5760 5762 5763 5764 5764 5763 5762 5760 5759 5757 5755 5753 5751 5747 5744 5741 5737 5732
5588 5591 5594 5602 5612 5622 5637 5651 5663 5672 5679 5684 5691 5700 5710 5713 5718 5726 5729 5733 5737 5741 5744 5747 5750 5752 5755 5756 5757 5757 5757 5756 5755 5753 5752 5750 5748 5746 5743 5740 5736 5732 5729 5725
5580 5583 5587 5593 5602 5612 5625 5641 5655 5662 5668 5675 5686 5694 5704 5706 5712 5719 5725 5728 5732 5735 5738 5741 5744 5747 5749 5750 5751 5751 5750 5749 5748 5746 5745 5743 5741 5738 5735 5732 5728 5724 5720 5716
5575 5578 5582 5588 5597 5608 5621 5635 5649 5659 5665 5673 5682 5689 5698 5701 5710 5715 5719 5723 5726 5730 5732 5736 5738 5741 5743 5744 5744 5743 5743 5742 5741 5739 5738 5735 5733 5730 5727 5723 5720 5716 5712 5707
5573 5578 5582 5588 5597 5608 5620 5631 5646 5656 5665 5672 5678 5687 5693 5700 5706 5710 5714 5718 5721 5724 5727 5730 5732 5734 5736 5737 5737 5736 5736 5735 5734 5732 5730 5728 5725 5722 5719 5715 5711 5707 5703 5698
5573 5579 5584 5589 5597 5607 5619 5630 5641 5651 5659 5667 5675 5683 5690 5697 5701 5705 5710 5714 5717 5720 5723 5725 5727 5728 5729 5730 5730 5730 5729 5728 5726 5724 5722 5720 5717 5714 5711 5707 5703 5698 5693 5687
5574 5581 5588 5593 5599 5610 5620 5629 5638 5649 5658 5666 5672 5681 5686 5694 5698 5702 5705 5709 5712 5715 5717 5719 5721 5722 5723 5723 5723 5723 5722 5721 5719 5717 5715 5712 5709 5706 5702 5698 5693 5688 5682 5675
5578 5586 5592 5598 5605 5613 5621 5630 5639 5649 5657 5664 5670 5680 5684 5690 5694 5697 5701 5704 5707 5710 5712 5714 5715 5716 5716 5716 5716 5715 5714 5713 5711 5709 5707 5704 5700 5697 5692 5688 5682 5676 5670 5662
5584 5591 5596 5601 5608 5613 5621 5630 5639 5647 5655 5662 5668 5678 5680 5685 5689 5693 5696 5700 5703 5705 5707 5708 5709 5709 5709 5709 5709 5708 5707 5705 5703 5701 5698 5695 5691 5687 5682 5677 5671 5664 5656 5648
5587 5593 5599 5604 5609 5616 5624 5632 5640 5647 5655 5661 5667 5673 5678 5682 5685 5689 5692 5695 5698 5700 5701 5702 5702 5702 5702 5702 5701 5700 5699 5697 5695 5692 5689 5686 5682 5677 5671 5665 5658 5650 5642 5633
5588 5594 5599 5604 5611 5620 5627 5633 5640 5647 5654 5660 5665 5669 5674 5678 5681 5685 5688 5690 5692 5694 5695 5695 5696 5695 5695 5695 5694 5693 5691 5689 5686 5684 5680 5676 5672 5666 5660 5653 5645 5637 5628 5618
5592 5597 5602 5608 5614 5621 5627 5634 5640 5646 5652 5658 5662 5667 5670 5673 5677 5680 5683 5685 5687 5688 5688 5689 5689 5689 5689 5688 5687 5685 5683 5681 5678 5675 5671 5666 5661 5655 5648 5640 5632 5623 5613 5604
5596 5601 5606 5611 5616 5622 5629 5635 5640 5646 5651 5655 5660 5664 5665 5668 5671 5674 5678 5680 5681 5682 5683 5683 5683 5683 5682 5681 5679 5677 5675 5672 5669 5665 5661 5656 5650 5643 5635 5627 5618 5609 5600 5590
5598 5603 5607 5612 5619 5624 5631 5633 5637 5642 5646 5650 5655 5657 5659 5664 5667 5669 5672 5674 5675 5676 5676 5676 5676 5675 5674 5673 5671 5669 5667 5663 5660 5655 5650 5645 5638 5630 5622 5614 5605 5596 5587 5577
5599 5603 5608 5612 5617 5622 5626 5629 5633 5637 5642 5646 5649 5651 5654 5659 5661 5663 5665 5667 5668 5669 5669 5669 5668 5668 5666 5665 5663 5660 5658 5654 5650 5645 5639 5633 5626 5618 5610 5601 5591 5583 5574 5564
5598 5603 5608 5611 5615 5619 5623 5626 5629 5635 5638 5641 5644 5646 5650 5652 5655 5659 5659 5660 5661 5662 5662 5661 5661 5659 5658 5656 5654 5651 5648 5644 5639 5634 5628 5621 5613 5605 5596 5587 5579 5570 5560 5549
5598 5602 5605 5609 5612 5616 5620 5622 5626 5632 5635 5635 5638 5641 5644 5647 5650 5652 5652 5653 5654 5654 5654 5654 5652 5651 5649 5647 5645 5642 5638 5633 5628 5622 5616 5608 5600 5592 5583 5575 5566 5557 5546 5534
5597 5601 5604 5607 5611 5617 5617 5619 5623 5626 5628 5630 5633 5636 5639 5641 5643 5645 5646 5647 5647 5647 5646 5645 5644 5642 5640 5638 5635 5632 5627 5622 5617 5610 5603 5596 5588 5580 5572 5563 5553 5541 5529 5517
5595 5599 5603 5607 5612 5612 5614 5617 5619 5622 5624 5627 5630 5632 5634 5636 5638 5639 5640 5640 5640 5639 5638 5637 5635 5634 5631 5628 5625 5621 5616 5611 5605 5598 5591 5583 5576 5568 5559 5549 5538 5526 5512 5499
5592 5595 5599 5603 5607 5609 5611 5613 5616 5618 5621 5623 5626 5628 5629 5631 5632 5633 5633 5633 5632 5631 5630 5629 5627 5625 5622 5618 5614 5610 5605 5599 5593 5586 5579 5572 5565 5556 5546 5535 5522 5509 5495 5481
5589 5591 5595 5599 5603 5605 5607 5609 5612 5614 5617 5619 5621 5622 5624 5625 5625 5626 5626 5625 5624 5623 5622 5620 5618 5615 5612 5608 5603 5599 5593 5588 5581 5575 5569 5561 5553 5544 5533 5521 5507 5493 5477 5459
5585 5588 5592 5596 5599 5601 5604 5606 5608 5610 5612 5614 5616 5617 5618 5618 5619 5619 5618 5618 5616 5615 5613 5611 5608 5605 5601 5597 5593 5588 5582 5577 5571 5564 5557 5549 5540 5530 5519 5507 5494 5476 5460 5443